"2010-08-18 00:00:00",80941,4.507,124.6,5.965,0.446,21.48,109.8319,24.46,25.33,25.7,0,111.3,13.09,25.30,86.6
"2010-08-18 00:00:30",80942,3.664,113.5,4.266,0.262,21.48,109.8361,24.47,25.34,25.54,0,111.3,13.09,25.31,75.5
"2010-08-18 00:01:00",80943,3.165,134.7,4.018,0.312,21.36,109.8392,24.48,25.34,25.57,0,111.3,13.09,25.32,96.7
"2010-08-18 00:01:30",80944,4.245,129.6,3.642,0.486,21.36,109.8387,24.48,25.35,25.64,0,111.3,13.09,25.32,91.6
"2010-08-18 00:02:00",80945,4.375,119.9,4.51,0.203,21.37,109.8406,24.49,25.35,25.38,0,111.2,13.1,25.32,81.9
"2010-08-18 00:02:30",80946,4.816,126,3.932,0.181,21.41,109.842,24.49,25.36,25.41,0,111.2,13.1,25.33,88.0
"2010-08-18 00:03:00",80947,4.811,123.2,3.883,0.199,21.4,109.8448,24.5,25.35,25.34,0,111.3,13.1,25.33,85.2
"2010-08-18 00:03:30",80948,4.244,121.7,4.792,0.278,21.38,109.8434,24.49,25.37,25.44,0,111.3,13.1,25.33,83.7
"2010-08-18 00:04:00",80949,4.166,120.4,3.515,0.262,21.36,109.8378,24.48,25.35,25.42,0,111.2,13.1,25.32,82.4
"2010-08-18 00:04:30",80950,4.699,117.7,4.958,0.359,21.46,109.8342,24.47,25.35,25.73,0,111.2,13.1,25.31,79.7
"2010-08-18 00:05:00",80951,3.675,118.4,3.637,0.262,21.34,109.8322,24.46,25.35,25.55,0,111.2,13.1,25.30,80.4
"2010-08-18 00:05:30",80952,3.526,117.5,2.6,0.28,21.39,109.8316,24.46,25.33,25.77,0,111.3,13.1,25.30,79.5
"2010-08-18 00:06:00",80953,4.026,111.3,11.46,0.517,21.4,109.8316,24.46,25.34,25.89,0,111.2,13.1,25.30,73.3
"2010-08-18 00:06:30",80954,4.756,110.6,3.022,0.333,21.39,109.8316,24.46,25.34,25.77,0,111.3,13.1,25.30,72.6
"2010-08-18 00:07:00",80955,3.926,102.8,5.03,0.431,21.43,109.8316,24.46,25.33,25.75,0,111.2,13.1,25.30,64.8
"2010-08-18 00:07:30",80956,3.981,114.4,2.979,0.287,21.28,109.8316,24.46,25.34,25.61,0,111.2,13.1,25.30,76.4
"2010-08-18 00:08:00",80957,3.923,129.3,4.066,0.161,21.28,109.8316,24.46,25.33,25.54,0,111.3,13.1,25.30,91.3
"2010-08-18 00:08:30",80958,3.874,123.5,5.659,0.307,21.26,109.8294,24.46,25.33,25.55,0,111.2,13.1,25.29,85.5
"2010-08-18 00:09:00",80959,3.979,120.5,7.815,0.312,21.29,109.8224,24.44,25.32,25.61,0,111.2,13.1,25.28,82.5
"2010-08-18 00:09:30",80960,4.363,113.2,4.566,0.235,21.32,109.8185,24.43,25.31,25.66,0,111.2,13.09,25.27,75.2
"2010-08-18 00:10:00",80961,3.909,115.6,5.315,0.375,21.34,109.8134,24.42,25.32,25.85,0,111.2,13.1,25.25,77.6
"2010-08-18 00:10:30",80962,3.24,123.6,6.434,0.423,21.37,109.8213,24.44,25.3,25.92,0,111.2,13.1,25.27,85.6
"2010-08-18 00:11:00",80963,3.153,111.7,3.306,0.204,21.3,109.8266,24.45,25.31,25.91,0,111.2,13.1,25.29,73.7
"2010-08-18 00:11:30",80964,3.361,115.1,2.262,0.176,21.27,109.8238,24.44,25.32,25.96,0,111.2,13.1,25.28,77.1
"2010-08-18 00:12:00",80965,3.788,110.1,3.379,0.088,21.23,109.8196,24.43,25.33,25.85,0,111.2,13.09,25.27,72.1
"2010-08-18 00:12:30",80966,3.933,115.8,2.313,0.117,21.22,109.814,24.42,25.3,25.73,0,111.2,13.09,25.25,77.8
"2010-08-18 00:13:00",80967,3.816,113.9,2.005,0.123,21.25,109.812,24.41,25.31,25.75,0,111.2,13.09,25.25,75.9
"2010-08-18 00:13:30",80968,3.64,114.3,3.768,0.304,21.26,109.8131,24.41,25.31,25.99,0,111.2,13.09,25.25,76.3
"2010-08-18 00:14:00",80969,4.115,119.6,2.342,0.336,21.29,109.814,24.42,25.3,26.02,0,111.2,13.09,25.25,81.6
"2010-08-18 00:14:30",80970,3.474,123.8,3.725,0.138,21.27,109.814,24.42,25.31,25.9,0,111.2,13.09,25.25,85.8
"2010-08-18 00:15:00",80971,3.528,130.4,2.871,0.212,21.3,109.8106,24.41,25.3,25.83,0,111.2,13.09,25.24,92.4
"2010-08-18 00:15:30",80972,3.816,128.8,2.904,0.177,21.29,109.8103,24.41,25.3,25.78,0,111.2,13.09,25.24,90.8
"2010-08-18 00:16:00",80973,3.958,133.1,1.707,0.125,21.31,109.8126,24.41,25.31,25.79,0,111.2,13.09,25.25,95.1
"2010-08-18 00:16:30",80974,4.25,127.5,5.943,0.544,21.41,109.8128,24.41,25.32,25.93,0,111.2,13.09,25.25,89.5
"2010-08-18 00:17:00",80975,4.316,129,6.866,0.325,21.46,109.8145,24.42,25.31,26.2,0,111.2,13.09,25.26,91.0
"2010-08-18 00:17:30",80976,3.763,135.6,7.234,0.319,21.48,109.8171,24.42,25.31,26.23,0,111.2,13.09,25.26,97.6
"2010-08-18 00:18:00",80977,4.455,135.9,8.54,0.309,21.42,109.8269,24.45,25.31,26.13,0,111.2,13.1,25.29,97.9
"2010-08-18 00:18:30",80978,4.349,127.2,3.956,0.288,21.39,109.8266,24.45,25.31,25.89,0,111.2,13.1,25.29,89.2
"2010-08-18 00:19:00",80979,4.205,126.1,3.021,0.115,21.4,109.8277,24.45,25.32,25.79,0,111.2,13.1,25.29,88.1
"2010-08-18 00:19:30",80980,3.892,117.5,1.867,0.266,21.41,109.8269,24.45,25.33,25.68,0,111.2,13.1,25.29,79.5
"2010-08-18 00:20:00",80981,4.273,123.5,6.521,0.436,21.37,109.8196,24.43,25.32,25.67,0,111.2,13.1,25.27,85.5
"2010-08-18 00:20:30",80982,4.572,121.8,3.594,0.243,21.39,109.8176,24.43,25.32,25.67,0,111.2,13.1,25.26,83.8
"2010-08-18 00:21:00",80983,4.439,121.8,3.002,0.175,21.44,109.8218,24.44,25.32,25.82,0,111.2,13.1,25.27,83.8
"2010-08-18 00:21:30",80984,4.412,126.4,4.536,0.272,21.45,109.819,24.43,25.32,26.01,0,111.2,13.1,25.27,88.4
"2010-08-18 00:22:00",80985,4.001,131.3,1.224,0.244,21.44,109.814,24.42,25.33,26.06,0,111.2,13.1,25.25,93.3
"2010-08-18 00:22:30",80986,3.986,119.1,5.937,0.368,21.48,109.8089,24.4,25.32,25.95,0,111.2,13.1,25.24,81.1
"2010-08-18 00:23:00",80987,3.441,127.7,2.999,0.136,21.42,109.8084,24.4,25.31,25.89,0,111.2,13.1,25.24,89.7
"2010-08-18 00:23:30",80988,3.215,118.6,3.882,0.241,21.41,109.8084,24.4,25.31,25.87,0,111.2,13.1,25.24,80.6
"2010-08-18 00:24:00",80989,3.562,120.1,1.689,0.098,21.4,109.8086,24.4,25.31,25.82,0,111.2,13.1,25.24,82.1
"2010-08-18 00:24:30",80990,3.564,123,2.411,0.094,21.4,109.8075,24.4,25.31,25.83,0,111.2,13.1,25.24,85.0
"2010-08-18 00:25:00",80991,3.404,125,2.014,0.068,21.44,109.8084,24.4,25.32,25.77,0,111.2,13.1,25.24,87.0
"2010-08-18 00:25:30",80992,3.284,123.2,2.035,0.142,21.46,109.8095,24.41,25.31,25.76,0,111.2,13.1,25.24,85.2
"2010-08-18 00:26:00",80993,4.097,123.9,1.809,0.487,21.41,109.8092,24.4,25.32,25.88,0,111.2,13.1,25.24,85.9
"2010-08-18 00:26:30",80994,4.089,128.5,4.37,0.297,21.46,109.8114,24.41,25.31,26.17,0,111.2,13.1,25.25,90.5
"2010-08-18 00:27:00",80995,4.033,135.3,2.141,0.162,21.46,109.8081,24.4,25.32,26.26,0,111.2,13.1,25.24,97.3
"2010-08-18 00:27:30",80996,4.46,130.1,2.924,0.267,21.56,109.8086,24.4,25.31,26.22,0,111.2,13.1,25.24,92.1
"2010-08-18 00:28:00",80997,4.162,128.4,1.956,0.289,21.72,109.8039,24.39,25.31,26.06,0,111.2,13.1,25.23,90.4
"2010-08-18 00:28:30",80998,3.549,126.8,4.465,0.206,21.74,109.7988,24.38,25.31,25.93,0,111.2,13.1,25.21,88.8
"2010-08-18 00:29:00",80999,4.101,127,3.53,0.253,21.79,109.798,24.38,25.31,26.36,0,111.2,13.09,25.21,89.0
"2010-08-18 00:29:30",81000,3.771,124.2,3.931,0.412,21.87,109.798,24.38,25.31,26.42,0,111.2,13.09,25.21,86.2
"2010-08-18 00:30:00",81001,3.231,117.4,3.207,0.133,21.95,109.7998,24.38,25.28,25.95,0,111.2,13.09,25.22,79.4
"2010-08-18 00:30:30",81002,2.826,125.6,2.889,0.15,21.96,109.7989,24.38,25.28,25.95,0,111.2,13.09,25.21,87.6
"2010-08-18 00:31:00",81003,3.013,121.6,3.269,0.286,21.99,109.7974,24.37,25.28,26.05,0,111.2,13.09,25.21,83.6
"2010-08-18 00:31:30",81004,3.794,109.3,5.84,0.283,21.9,109.7874,24.35,25.26,25.84,0,111.2,13.09,25.19,71.3
"2010-08-18 00:32:00",81005,4.265,117.7,3.377,0.276,21.86,109.79,24.36,25.25,25.86,0,111.2,13.09,25.19,79.7
"2010-08-18 00:32:30",81006,4.07,118.9,1.948,0.114,21.94,109.7915,24.36,25.27,25.77,0,111.2,13.09,25.20,80.9
"2010-08-18 00:33:00",81007,3.744,123.6,1.758,0.162,22.01,109.7868,24.35,25.25,25.91,0,111.2,13.09,25.18,85.6
"2010-08-18 00:33:30",81008,3.58,126,2.624,0.154,22.05,109.7874,24.35,25.24,25.78,0,111.2,13.09,25.19,88.0
"2010-08-18 00:34:00",81009,4.123,121.4,1.609,0.148,22.06,109.7887,24.35,25.24,25.88,0,111.2,13.09,25.19,83.4
"2010-08-18 00:34:30",81010,3.984,125.9,3.999,0.136,22.01,109.7908,24.36,25.23,25.91,0,111.2,13.09,25.19,87.9
"2010-08-18 00:35:00",81011,3.999,125.7,1.973,0.323,21.83,109.7915,24.36,25.22,25.71,0,111.2,13.1,25.20,87.7
"2010-08-18 00:35:30",81012,3.691,120.5,2.947,0.237,21.74,109.7909,24.36,25.22,25.7,0,111.2,13.1,25.19,82.5
"2010-08-18 00:36:00",81013,3.951,116,2.059,0.134,21.64,109.7904,24.36,25.22,25.72,0,111.2,13.1,25.19,78.0
"2010-08-18 00:36:30",81014,4.169,116.1,2.771,0.173,21.59,109.7898,24.35,25.23,25.8,0,111.2,13.1,25.19,78.1
"2010-08-18 00:37:00",81015,4.006,115.8,3.082,0.203,21.56,109.7915,24.36,25.21,25.77,0,111.2,13.1,25.20,77.8
"2010-08-18 00:37:30",81016,3.853,118.8,1.663,0.125,21.54,109.7906,24.36,25.2,25.78,0,111.2,13.1,25.19,80.8
"2010-08-18 00:38:00",81017,4.079,125.6,2.418,0.17,21.54,109.7892,24.35,25.21,25.82,0,111.2,13.1,25.19,87.6
"2010-08-18 00:38:30",81018,4.143,124,2.46,0.189,21.55,109.7913,24.36,25.22,26.14,0,111.2,13.1,25.20,86.0
"2010-08-18 00:39:00",81019,4.222,121.5,2.686,0.187,21.51,109.7895,24.35,25.21,26.33,0,111.2,13.1,25.19,83.5
"2010-08-18 00:39:30",81020,4.413,116.9,3.324,0.182,21.52,109.7883,24.35,25.19,26.41,0,111.2,13.1,25.19,78.9
"2010-08-18 00:40:00",81021,4.597,114.3,2.619,0.181,21.53,109.7841,24.34,25.2,26.35,0,111.2,13.1,25.18,76.3
"2010-08-18 00:40:30",81022,4.006,118.3,5.231,0.361,21.5,109.7819,24.33,25.2,26.27,0,111.2,13.1,25.17,80.3
"2010-08-18 00:41:00",81023,3.597,127.1,1.511,0.089,21.42,109.7805,24.33,25.19,25.96,0,111.2,13.1,25.17,89.1
"2010-08-18 00:41:30",81024,3.585,125,1.65,0.09,21.42,109.7825,24.34,25.19,25.41,0,111.2,13.1,25.17,87.0
"2010-08-18 00:42:00",81025,3.451,124.2,1.747,0.097,21.5,109.7892,24.35,25.2,25.41,0,111.2,13.1,25.19,86.2
"2010-08-18 00:42:30",81026,3.582,124.7,1.955,0.144,21.52,109.7917,24.36,25.2,25.49,0,111.2,13.1,25.20,86.7
"2010-08-18 00:43:00",81027,3.5,125.1,1.525,0.077,21.48,109.8007,24.38,25.22,25.46,0,111.2,13.1,25.22,87.1
"2010-08-18 00:43:30",81028,3.493,122.7,3.685,0.065,21.48,109.8013,24.38,25.22,25.31,0,111.2,13.1,25.22,84.7
"2010-08-18 00:44:00",81029,3.33,121.1,2.164,0.151,21.52,109.8013,24.38,25.23,25.5,0,111.2,13.1,25.22,83.1
"2010-08-18 00:44:30",81030,3.506,129.3,3.6,0.2,21.48,109.8013,24.38,25.22,25.33,0,111.2,13.1,25.22,91.3
"2010-08-18 00:45:00",81031,3.747,129.7,1.706,0.185,21.4,109.8013,24.38,25.24,26.14,0,111.2,13.1,25.22,91.7
"2010-08-18 00:45:30",81032,3.445,127.7,1.985,0.084,21.51,109.8013,24.38,25.24,25.33,0,111.2,13.1,25.22,89.7
"2010-08-18 00:46:00",81033,3.538,124.2,0.881,0.053,21.51,109.8013,24.38,25.23,25.09,0,111.2,13.1,25.22,86.2
"2010-08-18 00:46:30",81034,3.436,126,0.936,0.057,21.45,109.8013,24.38,25.24,25.31,0,111.2,13.1,25.22,88.0
"2010-08-18 00:47:00",81035,3.434,127.9,1.497,0.079,21.47,109.8013,24.38,25.25,25.43,0,111.2,13.1,25.22,89.9
"2010-08-18 00:47:30",81036,3.402,129,1.039,0.084,21.48,109.8013,24.38,25.22,25.41,0,111.2,13.1,25.22,91.0
"2010-08-18 00:48:00",81037,3.721,128.5,2.271,0.136,21.47,109.8004,24.38,25.23,25.42,0,111.2,13.1,25.22,90.5
"2010-08-18 00:48:30",81038,3.77,130.3,1.822,0.089,21.5,109.7912,24.36,25.22,25.45,0,111.2,13.1,25.19,92.3
"2010-08-18 00:49:00",81039,3.865,130.2,2.936,0.182,21.5,109.785,24.34,25.22,25.51,0,111.2,13.1,25.18,92.2
"2010-08-18 00:49:30",81040,4.008,128.1,1.268,0.154,21.52,109.771,24.31,25.21,25.47,0,111.2,13.1,25.14,90.1
"2010-08-18 00:50:00",81041,4.438,129.6,1.248,0.172,21.52,109.7676,24.3,25.21,25.57,0,111.2,13.1,25.13,91.6
"2010-08-18 00:50:30",81042,4.547,131.5,1.436,0.077,21.5,109.7676,24.3,25.2,25.85,0,111.2,13.1,25.13,93.5
"2010-08-18 00:51:00",81043,4.378,130.2,1.999,0.14,21.53,109.7676,24.3,25.2,25.59,0,111.2,13.1,25.13,92.2
"2010-08-18 00:51:30",81044,4.448,132,0.987,0.121,21.53,109.7676,24.3,25.18,25.35,0,111.2,13.1,25.13,94.0
"2010-08-18 00:52:00",81045,4.362,130.2,1.432,0.049,21.53,109.7676,24.3,25.18,25.19,0,111.2,13.11,25.13,92.2
"2010-08-18 00:52:30",81046,4.366,129.3,1.073,0.09,21.54,109.7676,24.3,25.19,25.16,0,111.2,13.11,25.13,91.3
"2010-08-18 00:53:00",81047,4.251,128.5,1.203,0.08,21.57,109.7676,24.3,25.18,25.22,0,111.2,13.11,25.13,90.5
"2010-08-18 00:53:30",81048,4.394,131.8,1.064,0.073,21.57,109.7676,24.3,25.18,25.27,0,111.2,13.11,25.13,93.8
"2010-08-18 00:54:00",81049,4.51,132.1,0.787,0.077,21.6,109.7676,24.3,25.18,25.16,0,111.2,13.11,25.13,94.1
"2010-08-18 00:54:30",81050,4.332,130.9,1.122,0.084,21.63,109.7676,24.3,25.17,25.12,0,111.2,13.11,25.13,92.9
"2010-08-18 00:55:00",81051,4.066,128.5,1.246,0.043,21.62,109.7676,24.3,25.18,25.21,0,111.2,13.11,25.13,90.5
"2010-08-18 00:55:30",81052,4.02,128.3,0.961,0.061,21.63,109.7676,24.3,25.17,25.15,0,111.2,13.11,25.13,90.3
"2010-08-18 00:56:00",81053,3.819,129.6,0.853,0.048,21.57,109.7676,24.3,25.18,25.05,0,111.2,13.11,25.13,91.6
"2010-08-18 00:56:30",81054,4.016,130.7,0.703,0.078,21.59,109.7676,24.3,25.18,25.02,0,111.2,13.11,25.13,92.7
"2010-08-18 00:57:00",81055,4.044,131,0.436,0.057,21.61,109.7676,24.3,25.19,24.73,0,111.2,13.11,25.13,93.0
"2010-08-18 00:57:30",81056,4.02,129.5,0.486,0.035,21.65,109.7676,24.3,25.2,24.58,0,111.2,13.11,25.13,91.5
"2010-08-18 00:58:00",81057,3.954,129.1,0.513,0.041,21.66,109.7676,24.3,25.19,24.55,0,111.2,13.11,25.13,91.1
"2010-08-18 00:58:30",81058,3.923,130,0.715,0.037,21.62,109.7682,24.3,25.2,24.55,0,111.2,13.11,25.14,92.0
"2010-08-18 00:59:00",81059,3.953,129,1.457,0.061,21.66,109.7715,24.31,25.2,24.39,0,111.2,13.11,25.14,91.0
"2010-08-18 00:59:30",81060,4.046,127.3,0.514,0.057,21.7,109.7794,24.33,25.2,24.24,0,111.2,13.11,25.16,89.3
"2010-08-18 01:00:00",81061,3.954,127.4,0.494,0.024,21.72,109.7878,24.35,25.21,24.35,0,111.2,13.11,25.19,89.4
"2010-08-18 01:00:30",81062,3.873,126.4,0.667,0.041,21.68,109.79,24.36,25.22,24.41,0,111.2,13.11,25.19,88.4
"2010-08-18 01:01:00",81063,3.82,125.1,0.435,0.03,21.64,109.7917,24.36,25.23,24.36,0,111.2,13.11,25.20,87.1
"2010-08-18 01:01:30",81064,3.817,124.9,0.441,0.067,21.68,109.794,24.37,25.24,24.34,0,111.2,13.11,25.20,86.9
"2010-08-18 01:02:00",81065,3.825,125.4,0.434,0.033,21.64,109.7979,24.38,25.24,24.46,0,111.2,13.11,25.21,87.4
"2010-08-18 01:02:30",81066,3.836,125.5,0.308,0.043,21.63,109.7982,24.38,25.24,24.46,0,111.2,13.11,25.21,87.5
"2010-08-18 01:03:00",81067,3.735,124.6,1.192,0.047,21.67,109.7968,24.37,25.24,24.52,0,111.2,13.11,25.21,86.6
"2010-08-18 01:03:30",81068,3.76,120.9,1.412,0.05,21.78,109.7912,24.36,25.25,24.43,0,111.2,13.11,25.19,82.9
"2010-08-18 01:04:00",81069,3.762,119.7,0.928,0.07,21.78,109.7923,24.36,25.23,24.59,0,111.2,13.11,25.20,81.7
"2010-08-18 01:04:30",81070,3.756,118.9,0.741,0.031,21.73,109.7904,24.36,25.25,24.79,0,111.2,13.11,25.19,80.9
"2010-08-18 01:05:00",81071,3.72,120,1.095,0.052,21.76,109.7884,24.35,25.24,24.81,0,111.2,13.11,25.19,82.0
"2010-08-18 01:05:30",81072,3.891,121.4,1.13,0.075,21.68,109.7798,24.33,25.24,24.78,0,111.2,13.11,25.17,83.4
"2010-08-18 01:06:00",81073,4.019,122.1,1.059,0.077,21.68,109.7729,24.31,25.23,24.75,0,111.2,13.11,25.15,84.1
"2010-08-18 01:06:30",81074,4.004,120.6,1.068,0.052,21.66,109.77,24.3,25.23,24.88,0,111.2,13.11,25.14,82.6
"2010-08-18 01:07:00",81075,4.089,121.3,0.832,0.042,21.73,109.7731,24.31,25.24,24.83,0,111.2,13.11,25.15,83.3
"2010-08-18 01:07:30",81076,4.052,121.6,0.441,0.049,21.79,109.7716,24.31,25.21,24.78,0,111.2,13.11,25.14,83.6
"2010-08-18 01:08:00",81077,3.928,120.7,0.202,0.063,21.82,109.7713,24.31,25.21,24.89,0,111.2,13.11,25.14,82.7
"2010-08-18 01:08:30",81078,3.804,121.1,0.656,0.036,21.86,109.7734,24.31,25.21,24.92,0,111.2,13.11,25.15,83.1
"2010-08-18 01:09:00",81079,3.917,121.7,0.873,0.068,21.82,109.7768,24.32,25.21,25.12,0,111.2,13.11,25.16,83.7
"2010-08-18 01:09:30",81080,3.833,123.5,1.027,0.07,21.83,109.7793,24.33,25.21,25.14,0,111.1,13.11,25.16,85.5
"2010-08-18 01:10:00",81081,3.82,124.3,0.725,0.096,21.82,109.7824,24.34,25.2,25.04,0,111.1,13.11,25.17,86.3
"2010-08-18 01:10:30",81082,3.82,126.2,1.672,0.059,21.79,109.7855,24.34,25.21,24.96,0,111.1,13.11,25.18,88.2
"2010-08-18 01:11:00",81083,3.853,126,1.399,0.052,21.79,109.7882,24.35,25.21,24.85,0,111.1,13.11,25.19,88.0
"2010-08-18 01:11:30",81084,3.824,126.7,0.743,0.032,21.77,109.791,24.36,25.21,24.78,0,111.1,13.11,25.19,88.7
"2010-08-18 01:12:00",81085,3.811,128.1,0.639,0.032,21.75,109.7916,24.36,25.2,24.88,0,111.1,13.11,25.20,90.1
"2010-08-18 01:12:30",81086,3.846,129.4,0.811,0.046,21.81,109.7941,24.37,25.19,24.75,0,111.1,13.11,25.20,91.4
"2010-08-18 01:13:00",81087,3.937,129.8,0.511,0.036,21.89,109.7947,24.37,25.2,24.53,0,111.1,13.11,25.20,91.8
"2010-08-18 01:13:30",81088,3.919,131.4,0.493,0.035,21.91,109.7953,24.37,25.21,24.44,0,111.1,13.11,25.21,93.4
"2010-08-18 01:14:00",81089,3.892,132.6,0.429,0.042,22.03,109.7953,24.37,25.2,24.39,0,111.2,13.11,25.21,94.6
"2010-08-18 01:14:30",81090,3.846,132.4,0.504,0.037,22.04,109.7956,24.37,25.21,24.41,0,111.1,13.11,25.21,94.4
"2010-08-18 01:15:00",81091,3.862,132.9,0.903,0.042,22.07,109.7956,24.37,25.21,24.48,0,111.1,13.11,25.21,94.9
"2010-08-18 01:15:30",81092,3.908,134.2,0.569,0.041,22.09,109.7956,24.37,25.22,24.48,0,111.1,13.11,25.21,96.2
"2010-08-18 01:16:00",81093,3.714,134.1,0.615,0.078,22.14,109.7959,24.37,25.21,24.44,0,111.1,13.11,25.21,96.1
"2010-08-18 01:16:30",81094,3.633,133.1,0.527,0.057,22.16,109.7966,24.37,25.22,24.44,0,111.1,13.12,25.21,95.1
"2010-08-18 01:17:00",81095,3.752,133.2,0.732,0.03,22.18,109.7978,24.38,25.24,24.57,0,111.1,13.12,25.21,95.2
"2010-08-18 01:17:30",81096,3.713,134,0.522,0.038,22.21,109.7975,24.37,25.21,24.63,0,111.1,13.12,25.21,96.0
"2010-08-18 01:18:00",81097,3.698,133.8,0.842,0.045,22.22,109.7972,24.37,25.22,24.55,0,111.1,13.12,25.21,95.8
"2010-08-18 01:18:30",81098,3.777,133.5,1.313,0.121,22.24,109.794,24.37,25.2,24.6,0,111.1,13.12,25.20,95.5
"2010-08-18 01:19:00",81099,3.908,132.8,0.722,0.086,22.25,109.7868,24.35,25.22,24.69,0,111.1,13.12,25.18,94.8
"2010-08-18 01:19:30",81100,3.759,133.2,1.089,0.05,22.28,109.7826,24.34,25.2,24.67,0,111.1,13.12,25.17,95.2
"2010-08-18 01:20:00",81101,3.696,131.6,0.544,0.067,22.25,109.781,24.33,25.2,24.67,0,111.1,13.12,25.17,93.6
"2010-08-18 01:20:30",81102,3.893,131.6,0.805,0.044,22.26,109.779,24.33,25.2,24.68,0,111.1,13.11,25.16,93.6
"2010-08-18 01:21:00",81103,4.004,131.1,0.838,0.119,22.26,109.7737,24.31,25.2,24.5,0,111.1,13.11,25.15,93.1
"2010-08-18 01:21:30",81104,4.256,131.2,0.665,0.076,22.23,109.7717,24.31,25.2,24.4,0,111.1,13.11,25.14,93.2
"2010-08-18 01:22:00",81105,4.288,131.3,0.606,0.082,22.24,109.7709,24.31,25.2,24.29,0,111.1,13.11,25.14,93.3
"2010-08-18 01:22:30",81106,4.465,132.8,0.78,0.075,22.26,109.7709,24.31,25.22,24.38,0,111.1,13.11,25.14,94.8
"2010-08-18 01:23:00",81107,4.475,134.4,0.49,0.044,22.24,109.7709,24.31,25.19,24.43,0,111.1,13.11,25.14,96.4
"2010-08-18 01:23:30",81108,4.464,135.2,0.919,0.048,22.25,109.7709,24.31,25.19,24.44,0,111.1,13.11,25.14,97.2
"2010-08-18 01:24:00",81109,4.533,134.8,0.929,0.072,22.26,109.7709,24.31,25.18,24.41,0,111.1,13.11,25.14,96.8
"2010-08-18 01:24:30",81110,4.556,135.5,1.088,0.13,22.23,109.7709,24.31,25.18,24.44,0,111.1,13.11,25.14,97.5
"2010-08-18 01:25:00",81111,4.618,135.4,1.362,0.137,22.24,109.765,24.29,25.17,24.46,0,111.1,13.11,25.13,97.4
"2010-08-18 01:25:30",81112,4.616,136.5,0.733,0.156,22.25,109.7627,24.28,25.17,24.31,0,111.1,13.11,25.12,98.5
"2010-08-18 01:26:00",81113,4.783,135.9,0.691,0.048,22.23,109.7554,24.27,25.16,24.38,0,111.1,13.12,25.10,97.9
"2010-08-18 01:26:30",81114,4.79,137.1,1.767,0.061,22.18,109.747,24.24,25.17,24.62,0,111.1,13.12,25.08,99.1
"2010-08-18 01:27:00",81115,4.68,138.4,0.735,0.073,22.17,109.7415,24.23,25.15,24.86,0,111.1,13.12,25.07,100.4
"2010-08-18 01:27:30",81116,4.686,138.6,1.151,0.07,22.16,109.7403,24.23,25.16,24.73,0,111.1,13.12,25.06,100.6
"2010-08-18 01:28:00",81117,4.658,138.1,2.107,0.094,22.13,109.7437,24.24,25.14,24.71,0,111.1,13.12,25.07,100.1
"2010-08-18 01:28:30",81118,4.616,140.5,1.911,0.092,22.13,109.748,24.25,25.14,24.76,0,111.1,13.12,25.08,102.5
"2010-08-18 01:29:00",81119,4.699,139.4,1.11,0.088,22.09,109.7544,24.26,25.15,25.03,0,111.1,13.12,25.10,101.4
"2010-08-18 01:29:30",81120,4.615,138.9,0.865,0.084,22.09,109.7603,24.28,25.13,24.95,0,111.1,13.12,25.12,100.9
"2010-08-18 01:30:00",81121,4.558,138,0.691,0.08,22.1,109.7631,24.29,25.14,24.4,0,111.1,13.12,25.12,100.0
"2010-08-18 01:30:30",81122,4.486,138,0.99,0.062,22.09,109.7649,24.29,25.13,24.43,0,111.1,13.13,25.13,100.0
"2010-08-18 01:31:00",81123,4.192,136.4,0.653,0.079,22.21,109.7649,24.29,25.14,24.12,0,111.1,13.13,25.13,98.4
"2010-08-18 01:31:30",81124,3.94,136.3,0.548,0.076,22.24,109.7649,24.29,25.15,24,0,111.1,13.13,25.13,98.3
"2010-08-18 01:32:00",81125,3.805,137.3,0.35,0.054,22.28,109.7675,24.3,25.15,23.97,0,111.1,13.13,25.13,99.3
"2010-08-18 01:32:30",81126,3.618,138.4,0.917,0.043,22.33,109.7805,24.33,25.17,23.92,0,111.1,13.13,25.17,100.4
"2010-08-18 01:33:00",81127,3.631,140.1,1.043,0.053,22.33,109.7973,24.37,25.18,23.83,0,111.1,13.13,25.21,102.1
"2010-08-18 01:33:30",81128,3.644,141.4,1.091,0.076,22.31,109.8039,24.39,25.19,23.74,0,111.1,13.13,25.23,103.4
"2010-08-18 01:34:00",81129,3.742,143.2,0.565,0.063,22.28,109.8066,24.4,25.21,23.69,0,111.1,13.13,25.23,105.2
"2010-08-18 01:34:30",81130,3.716,143.3,1.201,0.064,22.26,109.8079,24.4,25.23,23.6,0,111.1,13.13,25.24,105.3
"2010-08-18 01:35:00",81131,3.739,149.8,2.077,0.095,22.3,109.814,24.42,25.25,23.54,0,111.1,13.13,25.25,111.8
"2010-08-18 01:35:30",81132,3.361,153.6,2.744,0.213,22.38,109.8343,24.47,25.27,23.85,0,111.1,13.13,25.31,115.6
"2010-08-18 01:36:00",81133,3.407,150.6,1.1,0.227,22.29,109.8416,24.49,25.29,23.57,0,111.1,13.13,25.32,112.6
"2010-08-18 01:36:30",81134,2.498,168.2,7.333,0.259,22.32,109.8416,24.49,25.32,23.76,0,111.1,13.13,25.32,130.2
"2010-08-18 01:37:00",81135,2.648,157.5,5.061,0.226,22.37,109.8441,24.49,25.33,23.91,0,111.1,13.14,25.33,119.5
"2010-08-18 01:37:30",81136,2.479,165.5,7.588,0.33,22.39,109.8568,24.53,25.34,24.04,0,111.1,13.13,25.36,127.5
"2010-08-18 01:38:00",81137,1.98,156.4,4.408,0.131,22.36,109.8649,24.55,25.36,24.03,0,111.1,13.13,25.38,118.4
"2010-08-18 01:38:30",81138,2.185,146,4.888,0.18,22.31,109.8694,24.56,25.39,23.78,0,111.1,13.13,25.40,108.0
"2010-08-18 01:39:00",81139,2.562,151.6,4.01,0.286,22.32,109.8716,24.56,25.38,23.44,0,111.1,13.13,25.40,113.6
"2010-08-18 01:39:30",81140,2.945,147.2,2.622,0.236,22.27,109.8705,24.56,25.39,23.38,0,111.1,13.13,25.40,109.2
"2010-08-18 01:40:00",81141,2.874,142.3,2.456,0.085,22.3,109.8671,24.55,25.39,23.25,0,111.1,13.13,25.39,104.3
"2010-08-18 01:40:30",81142,3.071,144,2.369,0.209,22.22,109.8537,24.52,25.39,23.26,0,111.1,13.13,25.36,106.0
"2010-08-18 01:41:00",81143,3.358,143.9,0.725,0.152,22.2,109.8419,24.49,25.38,23.42,0,111,13.13,25.33,105.9
"2010-08-18 01:41:30",81144,3.472,144.6,0.787,0.065,22.29,109.8416,24.49,25.36,23.21,0,111.1,13.13,25.32,106.6
"2010-08-18 01:42:00",81145,3.587,146,1.441,0.131,22.29,109.8405,24.48,25.36,23.29,0,111,13.13,25.32,108.0
"2010-08-18 01:42:30",81146,3.453,155.7,6.919,0.374,22.41,109.8281,24.45,25.35,23.35,0,111.1,13.13,25.29,117.7
"2010-08-18 01:43:00",81147,2.95,165.4,3.343,0.298,22.48,109.8326,24.46,25.35,23.73,0,111,13.13,25.30,127.4
"2010-08-18 01:43:30",81148,3.328,155.4,3.391,0.19,22.37,109.8413,24.49,25.34,23.41,0,111.1,13.13,25.32,117.4
"2010-08-18 01:44:00",81149,3.414,154.6,3.409,0.116,22.42,109.8407,24.49,25.34,23.41,0,111.1,13.14,25.32,116.6
"2010-08-18 01:44:30",81150,3.212,150.2,1.581,0.088,22.43,109.8408,24.49,25.35,23.28,0,111,13.14,25.32,112.2
"2010-08-18 01:45:00",81151,3.197,150.3,0.523,0.065,22.33,109.8368,24.48,25.35,23.14,0,111,13.14,25.31,112.3
"2010-08-18 01:45:30",81152,3.422,149.7,0.604,0.063,22.34,109.8211,24.44,25.35,23.07,0,111,13.14,25.27,111.7
"2010-08-18 01:46:00",81153,3.579,151.9,0.831,0.04,22.26,109.8109,24.41,25.34,23.5,0,111,13.14,25.25,113.9
"2010-08-18 01:46:30",81154,3.581,153.3,1.382,0.085,22.26,109.8153,24.42,25.33,23.73,0,111,13.14,25.26,115.3
"2010-08-18 01:47:00",81155,3.612,155.1,0.856,0.042,22.3,109.8166,24.42,25.31,23.99,0,111,13.14,25.26,117.1
"2010-08-18 01:47:30",81156,3.556,155.2,0.764,0.033,22.3,109.8035,24.39,25.28,24.09,0,111,13.14,25.23,117.2
"2010-08-18 01:48:00",81157,3.819,157.6,1.942,0.112,22.33,109.7982,24.38,25.26,24.22,0,111,13.14,25.21,119.6
"2010-08-18 01:48:30",81158,3.808,157.8,2.163,0.158,22.42,109.8007,24.38,25.25,23.84,0,111,13.14,25.22,119.8
"2010-08-18 01:49:00",81159,3.825,156.6,0.567,0.124,22.36,109.8016,24.38,25.24,24.06,0,111,13.14,25.22,118.6
"2010-08-18 01:49:30",81160,3.927,156.4,0.888,0.154,22.38,109.8011,24.38,25.23,23.91,0,111,13.14,25.22,118.4